Location: Nairn
(57.5833°N, 3.8667°W)
Time: 14:48:31
(UTC+00:00)

Cosmos 1666 - Pass Details

Date: 07 August 2020
Orbit: 498 x 519 km, 82.5° (Epoch: 23 September)

Event Time Altitude Azimuth Distance (km) Brightness Sun altitude
Exits shadow 00:46:38 14° 246° (WSW) 1,488 4.7 -15.9°
Maximum altitude 00:49:05 25° 296° (WNW) 1,052 4.4 -15.9°
Drops below altitude 10° 00:52:15 10° 353° (N) 1,726 6.6 -15.8°
Sets 00:54:40 0° 7° (N) 2,619 8.2 -15.8°
